Location: Praroman
(46.7465°N, 7.1778°E)
Time: 19:26:19
(UTC+00:00)

Daily predictions for brighter satellites

Satellite Brightness Start Highest point End
(mag) Time Altitude Azimuth Time Altitude Azimuth Time Altitude Azimuth
NOSS 3-1 (A) 3.5 16:17:54 10° SSW 16:23:17 58° ESE 16:29:29 10° NE
BREEZE-M DEB (TANK) 4.2 16:19:52 10° SW 16:23:32 63° SE 16:35:43 10° ENE
NOSS 2-3 (D) 4.5 16:20:49 10° S 16:24:44 34° ESE 16:29:11 10° NE
ALOS 3.1 16:20:56 10° S 16:25:31 56° W 16:30:07 10° NNW
SeaSat 1 3.5 16:22:26 10° E 16:26:24 25° NE 16:30:22 10° N
CZ-4B R/B 3.7 16:21:30 10° S 16:26:45 64° WSW 16:32:02 10° NNW
Cosmos 1656 3.7 16:21:17 10° SSW 16:26:48 72° ESE 16:32:17 10° NNE
Cosmos 1464 Rocket 4.3 16:21:18 10° N 16:27:11 44° ENE 16:32:59 10° SE
IRS-1C Rocket 4.1 16:22:15 10° SSE 16:27:26 61° ENE 16:32:40 10° N
Cosmos 1538 Rocket 4.1 16:22:24 10° SSW 16:27:42 88° WNW 16:33:05 10° NNE
Helios 1A Rocket 3.9 16:24:28 10° S 16:28:32 54° W 16:32:37 10° NNW
SMAP 3.2 16:25:11 10° SE 16:29:40 51° ENE 16:34:12 10° N
Cosmos 2278 4.3 16:26:19 10° S 16:31:29 37° ESE 16:36:42 10° NE
AQUARIUS 4.2 16:34:58 10° SSE 16:39:21 57° ENE 16:43:46 10° N
Cosmos 397 4.5 16:36:03 10° NNW 16:40:08 59° NE 16:44:18 10° SE
YAOGAN 1 4.0 16:41:44 10° ESE 16:44:35 17° ENE 16:47:27 10° NNE
CENTAUR R/B 4.2 16:39:08 10° NW 16:44:49 23° NNE 16:50:43 11° ENE
Cosmos 1470 Rocket 4.5 16:42:21 10° NNE 16:46:15 28° ENE 16:50:06 10° SE
Envisat 3.4 16:41:41 10° SE 16:46:22 39° ENE 16:51:04 10° N
Cosmos 1356 Rocket 3.5 16:45:44 10° S 16:49:56 87° WNW 16:54:14 10° N
COBE Rocket 3.9 16:52:22 10° NNE 16:57:02 53° E 17:01:35 10° S
PSLV R/B 4.4 16:54:30 10° N 16:58:43 65° WNW 17:02:52 10° SSW
NOSS 2-3 (C) 3.7 16:57:58 10° SSW 17:02:18 74° SE 17:06:56 13° NE
CZ-4 R/B 2.2 16:59:17 10° SE 17:02:50 29° ENE 17:06:20 10° N
Cosmos 724 4.2 16:58:09 10° NW 17:04:02 88° NE 17:09:49 10° SE
ATLAS 3B R/B 4.1 17:03:12 10° NNW 17:07:52 19° NNE 17:11:21 13° NE
SKYMED 2 4.2 17:04:18 10° NNE 17:08:15 33° E 17:12:10 10° SSE
CSL-04 Rocket 4.2 17:04:10 10° SE 17:08:55 34° ENE 17:13:39 10° N
CORIOLIS 4.2 17:03:42 10° SSE 17:09:07 85° WSW 17:14:36 10° NNW
Cosmos 1371 Rocket 3.9 17:05:17 10° NNW 17:10:28 65° ENE 17:15:36 10° SSE
Cosmos 1606 3.9 17:07:54 10° SE 17:10:39 21° E 17:10:39 21° E
Lacrosse 4 Rocket 2.0 17:07:09 10° SW 17:11:07 52° NW 17:15:05 10° NNE
Geosat 4.4 17:07:11 13° NE 17:11:27 43° ESE 17:16:11 10° S
Cosmos 1633 3.3 17:12:39 10° NNW 17:16:14 55° W 17:19:47 10° S
Cosmos 1862 3.5 17:12:43 10° NNW 17:16:43 75° W 17:20:41 10° S
Cosmos 1933 4.1 17:13:29 10° SSE 17:17:05 31° E 17:19:00 21° NE
NOAA 12 4.1 17:17:19 10° SSE 17:22:40 86° WSW 17:28:02 10° NNW
Cosmos 1980 Rocket 2.2 17:18:29 10° SSW 17:24:06 67° ESE 17:29:07 13° NNE
Cosmos 2112 Rocket 3.9 17:19:41 10° SSW 17:24:53 86° ESE 17:30:10 10° NNE
SL-16 R/B 3.3 17:20:40 10° SSE 17:24:54 22° E 17:25:11 22° E
Cosmos 2034 Rocket 4.0 17:21:12 10° N 17:27:36 88° E 17:33:59 10° S
GEOS 3 Rocket 3.7 17:25:08 20° NE 17:28:43 61° SE 17:33:56 10° SSW
APEX 2.5 17:26:10 10° SSW 17:29:31 84° ESE 17:30:28 40° NNE
Ariane Rocket 4.0 17:29:42 25° ENE 17:29:42 25° ENE 17:33:36 10° N
Cosmos 1680 Rocket 3.7 17:25:09 10° SSW 17:30:22 75° WNW 17:35:39 10° NNE
BREEZE-M DEB (TANK) 3.0 17:24:54 10° SW 17:30:28 45° SSE 17:31:38 31° ESE
Okean-O 3.0 17:26:22 10° S 17:30:46 68° WSW 17:35:12 10° NNW
Cosmos 2322 Rocket 3.4 17:27:20 10° SSE 17:30:44 21° ESE 17:30:44 21° ESE
Cosmos 1633 Rocket 3.9 17:32:21 10° NNW 17:36:40 52° W 17:40:57 10° S
Timation 1 Rocket 4.5 17:31:55 10° NNW 17:37:44 50° NE 17:41:45 20° ESE
Cosmos 1151 Rocket 3.0 17:33:50 10° S 17:38:13 85° W 17:42:38 10° N
Cosmos 1634 Rocket 4.0 17:37:52 10° N 17:43:55 54° ENE 17:49:56 10° SSE
Cosmos 2263 Rocket 2.1 17:40:03 10° NNW 17:45:34 58° ENE 17:49:12 21° SE
Cosmos 1816 Rocket 4.5 17:43:33 10° S 17:49:55 87° E 17:56:20 10° N
Cosmos 2228 Rocket 3.1 17:46:43 10° S 17:51:07 58° E 17:52:40 37° NE
Cosmos 1328 Rocket 4.1 17:46:47 10° SSW 17:51:08 58° WNW 17:55:29 10° N
USA 215 3.8 17:48:57 29° ENE 17:51:34 42° NNE 17:57:37 10° NW
Cosmos 1933 Rocket 3.5 17:49:31 10° N 17:53:54 85° W 17:58:15 10° S
BREEZE-M DEB (TANK) 3.1 17:53:08 10° WNW 17:55:05 36° NW 17:55:05 36° NW
Cosmos 1400 Rocket 4.4 17:52:21 10° SSE 17:54:08 23° SSE 17:54:08 23° SSE
COSMO-SKYMED 1 2.6 17:52:24 13° N 17:56:21 80° WNW 18:00:42 10° SSW
Cosmos 1515 Rocket 3.6 17:52:19 10° SSW 17:56:43 81° W 18:00:30 14° N
Tsikada Rocket 4.0 17:50:40 10° S 17:57:03 88° W 18:03:32 10° N
YAOGAN 6 3.0 17:54:21 10° S 17:57:48 58° W 18:01:16 10° NNW
ERBS 4.3 17:55:40 10° WNW 17:58:10 19° NNW 17:58:20 19° NNW
Meteor 1-14 Rocket 4.4 17:53:00 10° N 17:58:52 53° ENE 18:03:37 16° SSE
Cosmos 2279 Rocket 4.2 17:55:01 10° N 18:00:59 45° ENE 18:02:41 37° ESE
Cosmos 1697 Rocket 3.9 17:56:24 10° WSW 18:01:42 40° NW 18:06:50 11° NNE
Cosmos 2056 Rocket 4.1 17:56:47 10° NNW 18:01:48 56° WSW 18:06:53 10° S
SL-8 R/B 3.9 17:57:09 10° SW 18:01:51 55° SSE 18:02:24 52° SE
SeaSat 1 2.9 17:58:41 10° SSE 18:03:34 63° WSW 18:08:28 10° NW
USA 116 4.2 18:01:22 22° NNE 18:04:35 82° ESE 18:09:50 10° SSW
H-2A R/B 4.3 18:14:20 11° N 18:14:20 11° N 18:14:35 10° N
BREEZE-M R/B 4.4 18:09:52 10° SSW 18:12:47 24° S 18:12:47 24° S
COSMOS 2455 3.8 18:11:13 10° S 18:14:51 30° SSE 18:14:51 30° SSE
YAOGAN 1 3.2 18:16:02 10° S 18:20:17 56° W 18:24:33 10° NNW
Cosmos 1844 Rocket 4.2 18:22:22 10° NNW 18:24:56 23° N 18:24:56 23° N
DMSP B5D1-3 4.4 18:32:10 86° N 18:32:17 88° WNW 18:37:27 10° SSW
CENTAUR R/B 3.5 18:30:18 10° NW 18:37:40 44° NE 18:37:54 44° NE
CZ-4 R/B 3.5 18:34:18 10° SSW 18:37:50 27° W 18:41:18 10° NW
NOAA 11 4.5 18:34:02 10° S 18:39:24 64° WSW 18:44:50 10° NNW
Gblst 52 Del rocket 4.3 18:41:57 10° WNW 18:48:21 79° NNW 18:48:21 79° NNW
Cosmos 1452 Rocket 4.0 18:45:06 10° NNW 18:50:18 58° WSW 18:50:33 58° WSW
ATLAS 2AS CENTAUR R/B 4.3 18:49:05 10° S 18:52:08 24° SSE 18:52:08 24° SSE
ATLAS 3B R/B 3.6 18:54:11 10° NNW 18:58:36 34° N 18:58:36 34° N
USA 238 DEB 3.7 18:54:28 10° NW 19:01:32 85° N 19:01:32 85° N
USA 238 3.7 18:54:34 10° NW 19:01:36 85° N 19:01:36 85° N
NOSS 3-2 (A) 3.9 18:57:40 10° NW 19:05:08 83° NE 19:05:08 83° NE
Ariane Rocket 4.3 19:09:55 35° NW 19:09:55 35° NW 19:13:08 10° NNW
SL-16 R/B 3.0 19:02:53 10° SW 19:07:07 48° WSW 19:07:07 48° WSW
Cosmos 1980 Rocket 4.1 19:03:58 10° WSW 19:08:37 25° NW 19:10:55 20° NNW
Cosmos 2322 Rocket 3.4 19:09:23 10° SW 19:12:37 35° SW 19:12:37 35° SW
Cosmos 2263 Rocket 4.2 19:24:44 10° NW 19:29:03 23° WSW 19:31:01 19° SW
USA 215 4.0 19:36:18 46° NW 19:36:18 46° NW 19:40:43 10° NW
CENTAUR R/B 4.3 20:20:59 10° NW 20:25:06 35° NW 20:25:06 35° NW
